TimeCDT,TemperatureF,Dew PointF,Humidity,Sea Level PressureIn,VisibilityMPH,Wind Direction,Wind SpeedMPH,Gust SpeedMPH,PrecipitationIn,Events,Conditions,WindDirDegrees,DateUTC
12:15 AM,76.8,72.5,86,30.02,10.0,SSW,3.5,-,N/A,,Clear,210,2012-10-15 05:15:00
12:35 AM,75.7,72.1,89,30.00,10.0,South,8.1,-,N/A,,Clear,190,2012-10-15 05:35:00
12:55 AM,76.6,73.2,89,30.01,10.0,South,3.5,-,N/A,,Clear,190,2012-10-15 05:55:00
1:15 AM,77.0,73.2,88,30.01,10.0,Calm,Calm,-,N/A,,Clear,0,2012-10-15 06:15:00
1:35 AM,76.3,72.5,88,30.02,10.0,Calm,Calm,-,N/A,,Clear,0,2012-10-15 06:35:00
1:55 AM,75.2,71.8,89,30.02,10.0,North,3.5,-,N/A,,Clear,10,2012-10-15 06:55:00
2:15 AM,75.0,72.0,90,30.02,10.0,Calm,Calm,-,N/A,,Mostly Cloudy,0,2012-10-15 07:15:00
2:35 AM,75.2,72.0,90,30.02,10.0,Calm,Calm,-,N/A,,Overcast,0,2012-10-15 07:35:00
2:55 AM,75.4,72.1,90,30.02,10.0,North,4.6,-,N/A,,Mostly Cloudy,10,2012-10-15 07:55:00
3:15 AM,75.2,72.0,90,30.02,10.0,North,4.6,-,N/A,,Scattered Clouds,360,2012-10-15 08:15:00
3:35 AM,75.4,72.3,90,30.02,10.0,North,3.5,-,N/A,,Mostly Cloudy,350,2012-10-15 08:35:00
3:55 AM,75.9,72.9,90,30.02,10.0,North,6.9,-,N/A,,Overcast,10,2012-10-15 08:55:00
4:15 AM,76.3,73.0,90,30.02,10.0,North,4.6,-,N/A,,Overcast,10,2012-10-15 09:15:00
4:35 AM,76.5,73.0,89,30.01,10.0,North,4.6,-,N/A,,Overcast,10,2012-10-15 09:35:00
4:55 AM,76.5,73.2,90,30.02,10.0,NNE,4.6,-,N/A,,Overcast,20,2012-10-15 09:55:00
5:15 AM,77.2,73.6,89,30.02,10.0,NE,3.5,-,N/A,,Overcast,40,2012-10-15 10:15:00
5:35 AM,77.2,73.8,89,30.02,10.0,North,4.6,-,N/A,,Overcast,10,2012-10-15 10:35:00
5:55 AM,77.2,73.8,89,30.02,10.0,NNE,3.5,-,N/A,,Overcast,30,2012-10-15 10:55:00
6:15 AM,77.2,73.6,89,30.02,10.0,NNE,4.6,-,N/A,,Scattered Clouds,30,2012-10-15 11:15:00
6:35 AM,77.0,73.0,88,30.02,10.0,North,6.9,-,N/A,,Scattered Clouds,10,2012-10-15 11:35:00
7:15 AM,76.3,72.1,87,30.01,10.0,NNE,5.8,-,N/A,,Clear,20,2012-10-15 12:15:00
7:35 AM,75.7,71.8,87,30.02,10.0,NNE,9.2,-,N/A,,Scattered Clouds,20,2012-10-15 12:35:00
7:55 AM,75.6,70.7,85,30.02,10.0,NNE,6.9,-,N/A,,Mostly Cloudy,20,2012-10-15 12:55:00
8:35 AM,76.5,67.5,74,30.04,10.0,NNE,9.2,-,N/A,,Mostly Cloudy,30,2012-10-15 13:35:00
8:55 AM,76.6,65.1,67,30.04,10.0,NE,6.9,-,N/A,,Scattered Clouds,40,2012-10-15 13:55:00
9:15 AM,77.5,64.2,63,30.05,10.0,NE,6.9,-,N/A,,Clear,40,2012-10-15 14:15:00
9:55 AM,79.3,62.8,57,30.06,10.0,NE,9.2,-,N/A,,Mostly Cloudy,50,2012-10-15 14:55:00
10:15 AM,80.6,63.3,55,30.07,10.0,NE,11.5,-,N/A,,Scattered Clouds,50,2012-10-15 15:15:00
10:35 AM,81.5,62.6,53,30.07,10.0,NE,12.7,-,N/A,,Clear,50,2012-10-15 15:35:00
10:55 AM,82.8,62.1,49,30.06,10.0,NE,11.5,16.1,N/A,,Clear,50,2012-10-15 15:55:00
11:35 AM,84.4,59.2,42,30.06,10.0,ENE,11.5,-,N/A,,Clear,70,2012-10-15 16:35:00
11:55 AM,84.7,59.4,42,30.06,10.0,ENE,11.5,17.3,N/A,,Scattered Clouds,70,2012-10-15 16:55:00
12:15 PM,85.6,58.8,40,30.05,10.0,ENE,11.5,17.3,N/A,,Clear,70,2012-10-15 17:15:00
12:35 PM,86.0,58.8,40,30.04,10.0,NE,10.4,-,N/A,,Clear,50,2012-10-15 17:35:00
1:15 PM,86.7,58.5,38,30.02,10.0,East,9.2,16.1,N/A,,Clear,80,2012-10-15 18:15:00
1:35 PM,86.9,59.5,40,30.01,10.0,East,11.5,-,N/A,,Clear,80,2012-10-15 18:35:00
1:55 PM,86.7,59.7,40,30.01,10.0,East,10.4,16.1,N/A,,Clear,90,2012-10-15 18:55:00
2:15 PM,86.5,59.2,39,29.99,10.0,East,8.1,-,N/A,,Clear,80,2012-10-15 19:15:00
2:35 PM,87.1,60.3,40,29.99,10.0,East,11.5,-,N/A,,Clear,90,2012-10-15 19:35:00
2:55 PM,87.8,60.8,40,29.98,10.0,East,11.5,-,N/A,,Clear,100,2012-10-15 19:55:00
3:15 PM,86.5,62.1,44,29.97,10.0,East,9.2,-,N/A,,Clear,90,2012-10-15 20:15:00
3:35 PM,85.1,64.0,49,29.96,10.0,East,11.5,-,N/A,,Clear,90,2012-10-15 20:35:00
3:55 PM,84.7,65.5,52,29.95,10.0,East,11.5,-,N/A,,Clear,90,2012-10-15 20:55:00
4:15 PM,84.2,66.0,54,29.95,10.0,ENE,10.4,-,N/A,,Clear,70,2012-10-15 21:15:00
4:35 PM,84.9,65.8,53,29.94,10.0,ENE,11.5,-,N/A,,Clear,70,2012-10-15 21:35:00
4:55 PM,84.7,65.8,53,29.94,10.0,ENE,10.4,-,N/A,,Clear,70,2012-10-15 21:55:00
5:15 PM,83.7,66.6,56,29.94,10.0,East,9.2,-,N/A,,Clear,90,2012-10-15 22:15:00
5:35 PM,82.4,66.6,59,29.94,10.0,East,9.2,-,N/A,,Clear,90,2012-10-15 22:35:00
6:15 PM,81.1,66.7,61,29.94,10.0,East,8.1,-,N/A,,Clear,80,2012-10-15 23:15:00
6:35 PM,80.2,66.7,63,29.95,10.0,East,4.6,-,N/A,,Clear,100,2012-10-15 23:35:00
6:55 PM,79.2,67.3,67,29.96,10.0,Calm,Calm,-,N/A,,Clear,0,2012-10-15 23:55:00
7:15 PM,78.3,66.9,68,29.96,10.0,East,3.5,-,N/A,,Clear,90,2012-10-16 00:15:00
7:35 PM,78.3,66.7,68,29.96,10.0,East,3.5,-,N/A,,Clear,80,2012-10-16 00:35:00
7:55 PM,78.1,66.9,68,29.96,10.0,ENE,4.6,-,N/A,,Clear,70,2012-10-16 00:55:00
8:15 PM,77.9,67.3,70,29.97,10.0,East,3.5,-,N/A,,Clear,80,2012-10-16 01:15:00
8:35 PM,77.5,67.6,71,29.98,10.0,Calm,Calm,-,N/A,,Clear,0,2012-10-16 01:35:00
8:55 PM,75.9,67.3,74,29.98,10.0,Calm,Calm,-,N/A,,Clear,0,2012-10-16 01:55:00
9:15 PM,75.0,67.5,77,29.99,10.0,Calm,Calm,-,N/A,,Clear,0,2012-10-16 02:15:00
9:35 PM,75.6,67.6,76,29.99,10.0,Calm,Calm,-,N/A,,Clear,0,2012-10-16 02:35:00
9:55 PM,74.5,67.8,80,29.99,10.0,NE,4.6,-,N/A,,Clear,50,2012-10-16 02:55:00
10:15 PM,74.3,67.8,80,29.98,10.0,Calm,Calm,-,N/A,,Clear,0,2012-10-16 03:15:00
10:35 PM,74.3,68.0,81,29.98,10.0,Calm,Calm,-,N/A,,Clear,0,2012-10-16 03:35:00
10:55 PM,73.9,68.0,82,29.97,10.0,Calm,Calm,-,N/A,,Clear,0,2012-10-16 03:55:00
11:15 PM,74.7,68.0,80,29.97,10.0,ENE,3.5,-,N/A,,Clear,70,2012-10-16 04:15:00
11:35 PM,75.4,68.0,78,29.97,10.0,ENE,5.8,-,N/A,,Clear,70,2012-10-16 04:35:00
11:55 PM,75.9,68.0,76,29.98,10.0,Calm,Calm,-,N/A,,Clear,0,2012-10-16 04:55:00